STARLINK-37619, 69309

Orbit data source: Space-Track

STARLINK-37619, 69309 is a payload satellite owned by SpaceX/Seattle (US) in SSO that was launched on Sat, 30 May 2026 UTC via an FALCON 9 launch vehicle from the Air Force Western Test Range (AFWTR). Payload-class satellites include a variety of spacecraft equipped with specific instruments for various scientific and technological missions. These include communications satellites like Starlink; space stations such as the ISS; scientific satellites like the Hubble; Earth observation satellites from companies like Planet Labs, Umbra, and HawkEye 360; GPS; miniature CubeSats for education and research; and military/defense satellites.

Loading next visibility...
Identifier
69309, 2026-119P
Orbit
SSO
Country
Flag of USUS
Related business
Manufacturer
SpaceX/Seattle
Mission
Operational Commercial Communications
Bus & Motor
STARLINK V2MO, Unknown motor
Mass
575 kg wet, ~530 kg dry
Launch date (UTC)
2026-05-30 (4 months ago)
Launch vehicle
FALCON 9
Launch site
Air Force Western Test Range (AFWTR)
Object type
Payload
Rocket body
Debris
Shape & HBR
Box + 1 Pan, 17.7 m
Radar Cross Section
41.120 m², Large (>1 m²)

Expand to show TLE details & history
Last TLE update: 10 hours ago

TLE from 10 hours ago
0 STARLINK-37619
1 69309U 26119P   26263.88673526  .00011706  00000-0  36448-3 0  9993
2 69309  97.2861 288.6326 0000877  99.1601 260.9741 15.33433951 18729
Epoch: 2026-09-20T21:16Z
TLE epoch observation values (Epoch: 2026-09-20T21:16:53.926Z)
Latitude
-0.00002°
Longitude
-30.36657°
Altitude
468.782 km
Speed
7.632 km/s
True Right ascension
19h 14m 31s
True Declination
0° 00' 00"
Sunlit
Object was in daylight at epoch
Visualization orbit readout
Latitude
Unknown
Longitude
Unknown
Altitude
Unknown
Speed
Unknown
Apparent Right ascension
Unknown
Apparent Declination
Unknown
Sunlit
N/A
Visualization observer readout
Local Sidereal Time
00:08:51
Azimuth
Unknown
Elevation
Unknown
Doppler factor
Unknown
Orbital elements
Apogee altitude
463.119 km
Perigee altitude
461.919 km
Semi-major axis
6,840.656 km
Eccentricity
0.00009
Inclination
97.2861°
RAAN
288.6326°
Arg. of periapsis
99.1601°
True anomaly
260.96417°
Mean anomaly
260.9741°
Eccentric anomaly
260.96914°
Mean motion
3.83616 °/min
Orbital period
93.84 mins
BSTAR
0.00036448
Loading maneuver chart data...
Computing Atmospheric mass density...
Loading historical data...
Loading historical data...
Loading historical data...
Loading historical data...
Loading historical data...
Loading historical data...
Loading historical data...

Documentation

Showing up to 5 results
|